Volver al catálogo

STARLINK-3290

ActivoComunicacionesVLEO
NORAD 50828·PAYLOAD·🇺🇸 United States

Lanzado Jan 6, 2022 desde Cape Canaveral Space Force Station

Loading…

Próximos Pases (próximas 24 horas)

TLE

ActualizadoSource: CelesTrak SupGP

Época: Sep 15, 2026, 02:20 UTC

1 50828C 22001AB  26258.09770833 -.00043828  00000+0 -14096-2 0  2584
2 50828  53.1593  28.9562 0001067  85.7316 147.7150 15.31720611    10

Sigue STARLINK-3290 en tiempo real con AllMySat

Download on the App Store